Location: Gleizolles
(44.4833°N, 6.7667°E)
Time: 20:50:12
(UTC+00:00)

Tiros 1 despin weight - Pass Details

Date: 29 June 2024
Orbit: 576 x 620 km, 48.2° (Epoch: 19 July)

Event Time Altitude Azimuth Distance (km) Brightness Sun altitude
Rises 12:27:37 0° 284° (WNW) 2,891 ? 66.3°
Reaches altitude 10° 12:29:58 10° 289° (WNW) 1,987 ? 66.1°
Maximum altitude 12:34:29 57° 8° (N) 734 ? 65.6°
Drops below altitude 10° 12:38:59 10° 88° (E) 1,984 ? 65.2°
Sets 12:41:20 0° 92° (E) 2,886 ? 64.9°
